#timestamp,LO_Frequency,Hit,StdDev 
1585260015.6,286047000.7,N
1585260035.4,286046999.2,N
1585260055.2,286047000.9,N
1585260075.1,286046999.3,N
1585260076.0,286046999.3,N
1585260095.8,286046999.3,N
1585260115.7,286046998.8,N
1585260135.5,286046999.7,N
1585260155.3,286047004.3,Y
1585260175.2,286047000.3,P
1585260195.0,286047002.1,P
1585260195.9,286047002.1,N
1585260215.8,286047001.5,N
1585260235.6,286047003.4,Y
1585260255.4,286047005.9,P
1585260275.3,286047001.3,N
1585260295.1,286047000.2,N
1585260315.9,286047001.2,N
1585260335.7,286047000.9,N
1585260355.5,286047002.6,N
1585260375.4,286047000.7,N
1585260395.2,286047000.2,N
1585260415.1,286047000.6,N
1585260416.0,286047000.6,N
1585260435.8,286047001.0,N
1585260455.6,286047000.5,N
1585260475.5,286046999.8,N
1585260495.3,286046998.5,N
1585260515.1,286046997.6,N
1585260535.9,286046995.7,N
1585260555.7,286046997.0,N
1585260575.6,286046998.5,N
1585260595.4,286047002.6,N
1585260615.2,286046999.7,N
1585260635.1,286047000.5,N
1585260636.0,286047000.5,N
1585260655.8,286046998.2,N
1585260675.7,286046998.6,N
1585260695.5,286046998.8,N
1585260715.3,286046998.4,N
1585260735.2,286046998.5,N
1585260755.0,286046998.2,N
1585260755.9,286046998.2,N
1585260775.8,286046998.1,N
1585260795.6,286047000.3,N
1585260815.4,286047001.4,N
1585260835.3,286047002.1,N
1585260855.1,286046999.8,N
1585260875.9,286047002.6,N
1585260895.7,286047002.2,N
1585260915.5,286047004.1,N
1585260935.4,286047003.8,N
1585260955.2,286047000.3,N
1585260975.0,286047000.2,N
1585260975.9,286047000.2,N
1585260995.8,286047002.3,N
1585261015.6,286047001.8,N
1585261035.5,286047000.9,N
1585261055.3,286047001.3,N
1585261075.1,286047002.2,N
1585261095.9,286046999.9,N
1585261115.7,286047000.2,N
1585261135.6,286046999.9,N
1585261155.4,286046999.7,N
1585261175.2,286046999.8,N
1585261195.1,286047001.9,N
1585261196.0,286047001.9,N
1585261215.8,286047002.2,N
1585261235.6,286047003.3,N
1585261255.5,286047001.3,N
1585261275.3,286047002.5,N
1585261295.2,286047000.6,N
1585261315.9,286047002.3,N
1585261335.7,286047003.6,N
1585261355.6,286047006.0,Y
1585261375.4,286047005.2,P
1585261395.3,286047004.0,N
1585261415.1,286047004.3,N
1585261435.8,286047003.6,N
1585261455.7,286046999.8,N
1585261475.5,286046998.7,N
1585261495.4,286047001.1,N
1585261515.2,286047002.3,N
1585261535.0,286046999.7,N
1585261536.0,286046999.7,N
1585261555.8,286047001.7,N
1585261575.6,286047003.8,N
1585261595.5,286047001.5,N
1585261615.3,286047000.1,N
1585261635.1,286047004.0,N
1585261655.9,286047004.2,N
1585261675.7,286046999.7,N
1585261695.6,286047001.9,N
1585261715.4,286047001.8,N
1585261735.2,286047004.1,N
1585261755.1,286047003.5,N
1585261756.0,286047003.5,N
1585261775.8,286047003.9,N
1585261795.7,286047002.2,N
1585261815.5,286047001.8,N
1585261835.3,286047000.1,N
1585261855.2,286046998.2,N
1585261875.0,286047000.4,N
1585261875.9,286047000.4,N
1585261895.8,286047002.5,N
1585261915.6,286047002.7,N
1585261935.4,286047001.4,N
1585261955.3,286047002.4,N
1585261975.1,286047003.3,N
1585261995.9,286047004.2,N
1585262015.7,286047005.6,Y
1585262035.5,286047001.7,P
1585262055.4,286047002.7,P
1585262075.2,286047001.2,N
1585262095.0,286046998.6,N
1585262096.0,286046998.6,N
1585262115.8,286046998.3,N
1585262135.6,286047000.4,N
1585262155.5,286046997.0,N
1585262175.3,286046996.8,N
1585262195.1,286046999.2,N
1585262215.9,286046999.6,N
1585262235.7,286046996.9,N
1585262255.6,286046998.5,N
1585262275.4,286047000.9,N
1585262295.2,286047000.0,N
1585262315.1,286046999.0,N
1585262316.0,286046999.0,N
1585262335.8,286046996.7,N
1585262355.7,286047001.1,N
1585262375.5,286046999.3,N
1585262395.4,286046996.6,N
1585262415.2,286046997.8,N
1585262435.0,286046999.4,N
1585262435.9,286046999.4,N
1585262455.8,286046997.2,N
1585262475.6,286046996.9,N
1585262495.4,286046998.5,N
1585262515.3,286046998.6,N
1585262535.1,286046996.9,N
1585262555.9,286046998.9,N
1585262575.7,286047001.2,N
1585262595.5,286047000.6,N
1585262615.4,286047001.8,N
1585262635.2,286047001.2,N
1585262655.0,286047000.6,N
1585262656.0,286047000.6,N
1585262675.8,286047000.1,N
1585262695.6,286047000.0,N
1585262715.5,286047002.7,N
1585262735.3,286047001.0,N
1585262755.1,286046998.9,N
1585262775.9,286047000.9,N
1585262795.7,286047001.0,N
1585262815.6,286047000.2,N
1585262835.4,286047002.6,N
1585262855.2,286047000.4,N
1585262875.1,286047000.5,N
1585262876.0,286047000.5,N
1585262895.8,286047000.0,N
1585262915.6,286047002.2,N
1585262935.5,286047004.4,N
1585262955.3,286047002.5,N
1585262975.2,286047002.1,N
1585262995.9,286047002.4,N
1585263015.7,286047002.5,N
1585263035.6,286047002.7,N
1585263055.4,286046998.7,N
1585263075.3,286046999.3,N
1585263095.1,286046999.1,N
1585263115.8,286046998.2,N
1585263135.7,286047002.7,N
1585263155.5,286047000.9,N
1585263175.4,286047001.2,N
1585263195.2,286046999.3,N
1585263215.0,286047000.7,N
1585263215.9,286047000.7,N
1585263235.8,286046998.2,N
1585263255.6,286046999.6,N
1585263275.4,286046995.8,N
1585263295.3,286046996.0,N
1585263315.1,286046995.9,N
1585263335.9,286046997.6,N
1585263355.7,286046997.1,N
1585263375.5,286047000.5,N
1585263395.4,286047001.1,N
1585263415.2,286046998.4,N
1585263435.0,286047001.2,N
1585263436.0,286047001.2,N
1585263455.8,286046996.6,N
1585263475.6,286046996.7,N
1585263495.5,286046998.6,N
1585263515.3,286046996.7,N
1585263535.1,286046997.3,N
1585263555.9,286046998.4,N
1585263575.7,286046995.5,N
1585263595.6,286046994.8,N
